User: anonymous
Location: Plymouth
(43.7570°N, 71.6890°W)
Time: 06:27:54
(UTC-04:00)
Language:

Cosmos 2016 Rocket - Orbit

View from above orbital plane
View from above orbital plane
View from above satellite
View from above satellite

Ground track
Ground track

The orbit data is extracted from the following two-line orbital elements,

1 19922U 89028B   14112.53646487  .00000109  00000-0  94584-4 0    98
2 19922 082.9620 201.0269 0035759 229.2980 210.2577 13.77090968258721
Epoch (UTC): 22 April 2014 12:52:30
Eccentricity: 0.0035759
inclination: 82.9620°
perigee height: 948 km
apogee height: 1000 km
right ascension of ascending node: 201.0269°
argument of perigee: 229.2980°
revolutions per day: 13.77090968
mean anomaly at epoch: 210.2577°
orbit number at epoch: 25872

The dashed part of the orbit path shows where the satellite is in the earth's shadow,  

DLR